User: anonymous   Login
Location: ECC Obs
(38.4314°N, 90.9815°W)
Time: 15:44:31
(UTC-05:00)
Language:

Transit 2A Rocket - Orbit

View from above orbital plane
View from above orbital plane
View from above satellite
View from above satellite

Ground track
Ground track

The orbit data is extracted from the following two-line orbital elements,

1    47U 60007C   20098.40512551 -.00000032 +00000-0 +17983-4 0  9994
2    47 066.6673 345.0023 0228891 353.3607 006.4475 14.42080545124434
Epoch (UTC): 07 April 2020 09:43:22
Eccentricity: 0.0228891
inclination: 66.6673°
perigee height: 588 km
apogee height: 915 km
right ascension of ascending node: 345.0023°
argument of perigee: 353.3607°
revolutions per day: 14.42080545
mean anomaly at epoch: 6.4475°
orbit number at epoch: 12443

The dashed part of the orbit path shows where the satellite is in the earth's shadow,  

DLR